Location: Unspecified
(36.9193°S, 174.7252°E)
Time: 12:54:29
(UTC+13:00)

Envisat - Pass Details

Date: 29 September 2021
Orbit: 764 x 766 km, 98.2° (Epoch: 19 October)

Event Time Altitude Azimuth Distance (km) Brightness Sun altitude
Rises 06:29:14 0° 347° (NNW) 3,219 6.0 -7.0°
Reaches altitude 10° 06:31:48 10° 336° (NNW) 2,302 5.2 -6.5°
Maximum altitude 06:36:12 30° 276° (W) 1,374 3.8 -5.7°
Drops below altitude 10° 06:40:40 10° 216° (SW) 2,331 5.2 -4.8°
Sets 06:43:17 0° 204° (SSW) 3,266 6.1 -4.3°
